Regional Weather Roundup
Issued by NWS Nashville, TN

Home | Current Version | Previous Version | Text Only | Print | Product List | Glossary On
Versions: 1 2 3 4 5 6 7 8 9 10 11 12 13 14 15 16 17 18 19 20 21 22 23 24 25 26 27
000
ASUS44 KOHX 070110
RWROHX
MIDDLE TENNESSEE HOURLY WEATHER ROUNDUP
NATIONAL WEATHER SERVICE NASHVILLE TN
800 PM CDT FRI MAY 06 2016

NOTE: "FAIR" INDICATES FEW OR NO CLOUDS BELOW 12,000 FEET WITH
NO SIGNIFICANT WEATHER AND/OR OBSTRUCTIONS TO VISIBILITY.

* THESE REPORTS ARE NOT UNDER NWS QUALITY CONTROL AND MAY NOT
  REPORT WEATHER SUCH AS PRECIPITATION AND FOG.


TNZ005>011-023>034-057-059-062>066-078-080-070200
...NORTHERN MIDDLE TENNESSEE...

CITY           SKY/WX    TMP DP  RH WIND       PRES   REMARKS
CLARKSVILLE    CLEAR     64  44  48 W5        29.96S
CROSSVILLE     CLEAR     59  39  47 NW6       29.97R
NASHVILLE      PTCLDY    66  41  40 NW3       29.96S
SMYRNA         CLEAR     62  44  51 NW6       29.98R
SPARTA         CLEAR     57  46  67 NW3       29.95S
$$
TNZ056-058-060-061-075>077-079-093>097-070200
...SOUTHERN MIDDLE TENNESSEE...

CITY           SKY/WX    TMP DP  RH WIND       PRES   REMARKS
COLUMBIA       CLEAR     64  46  52 CALM      29.96S
MCMINNVILLE    CLEAR     61  45  55 NW3       29.97R
SHELBYVILLE    CLEAR     63  46  55 NW3       29.98S
TULLAHOMA      CLEAR     61  39  44 NW3       29.98S
WINCHESTER     CLEAR     63  43  48 NW5       29.97S
$$


...KEY TO REMARKS...
VSB - VISIBILITY IN MILES
WCI - WIND CHILL INDEX
HX  - HEAT INDEX





USA.gov is the U.S. government's official web portal to all federal, state and local government web resources and services.